AIC743 VABB-VOMM

Flight info

Callsign AIC743
Flight time 1h 27m
Altitude 41000
Route VEVAK2A EPKOS Q9 OPAMO OPAMO2F
Aircraft A359/H-SDE2E3GHIJ3J4J5LM1ORWXY/LB1D1

Departure

Time 2026-04-24 18:56
Airport Chhatrapati Shivaji Maharaj International Airport (VABB)

Arrival

Time 2026-04-24 20:24
Airport Chennai International Airport (VOMM)
Time Latitude Longitude Altitude Speed Heading
2026-04-24 18:54 19.08881 72.87743 30 ft 9 kts 276°
2026-04-24 18:55 19.08883 72.87559 30 ft 0 kts 269°
2026-04-24 18:55 19.08882 72.87491 31 ft 25 kts 269°
2026-04-24 18:56 19.08876 72.87002 33 ft 114 kts 269°
2026-04-24 18:56 19.08861 72.85851 68 ft 196 kts 271°
2026-04-24 18:56 19.08848 72.84224 413 ft 243 kts 271°
2026-04-24 18:56 19.08856 72.82285 900 ft 284 kts 271°
2026-04-24 18:57 19.08829 72.80162 1692 ft 288 kts 270°
2026-04-24 18:57 19.08777 72.78057 2275 ft 291 kts 269°
2026-04-24 18:57 19.08314 72.75964 2732 ft 298 kts 243°
2026-04-24 18:57 19.06935 72.74360 3267 ft 302 kts 213°
2026-04-24 18:58 19.04938 72.73662 3781 ft 305 kts 182°
2026-04-24 18:58 19.02829 72.73916 4339 ft 306 kts 168°
2026-04-24 18:58 19.01425 72.74057 4673 ft 308 kts 178°
2026-04-24 18:58 18.99275 72.74075 5222 ft 310 kts 179°
2026-04-24 18:59 18.97119 72.74088 5774 ft 311 kts 179°
2026-04-24 18:59 18.94947 72.74106 6326 ft 313 kts 178°
2026-04-24 18:59 18.92768 72.74127 6839 ft 314 kts 178°
2026-04-24 18:59 18.90577 72.74149 7352 ft 315 kts 178°
2026-04-24 19:00 18.88382 72.74172 7891 ft 316 kts 178°
2026-04-24 19:00 18.86177 72.74196 8409 ft 317 kts 178°
2026-04-24 19:00 18.83965 72.74219 8951 ft 318 kts 178°
2026-04-24 19:00 18.81748 72.74243 9487 ft 320 kts 178°
2026-04-24 19:01 18.79515 72.74268 9983 ft 321 kts 178°
2026-04-24 19:01 18.77354 72.74463 10415 ft 321 kts 166°
2026-04-24 19:01 18.75171 72.75124 10909 ft 321 kts 160°
2026-04-24 19:01 18.73044 72.75881 11364 ft 323 kts 160°
2026-04-24 19:02 18.70937 72.76626 11825 ft 325 kts 160°
2026-04-24 19:02 18.68802 72.77376 12304 ft 326 kts 160°
2026-04-24 19:02 18.66642 72.78130 12761 ft 328 kts 160°
2026-04-24 19:02 18.64466 72.78889 13223 ft 330 kts 160°
2026-04-24 19:03 18.62341 72.79628 13666 ft 332 kts 160°
2026-04-24 19:03 18.60137 72.80394 14059 ft 334 kts 160°
2026-04-24 19:03 18.57915 72.81166 14431 ft 337 kts 160°
2026-04-24 19:03 18.55679 72.81942 14824 ft 340 kts 160°
2026-04-24 19:04 18.53425 72.82724 15222 ft 342 kts 160°
2026-04-24 19:04 18.51155 72.83512 15615 ft 345 kts 160°
2026-04-24 19:04 18.48896 72.84295 16009 ft 347 kts 160°
2026-04-24 19:04 18.46594 72.85093 16400 ft 349 kts 160°
2026-04-24 19:05 18.44276 72.85897 16807 ft 352 kts 160°
2026-04-24 19:05 18.41944 72.86705 17186 ft 354 kts 160°
2026-04-24 19:05 18.39594 72.87519 17586 ft 356 kts 160°
2026-04-24 19:05 18.37227 72.88339 17984 ft 359 kts 160°
2026-04-24 19:06 18.34847 72.89163 18332 ft 361 kts 161°
2026-04-24 19:06 18.32451 72.89992 18665 ft 364 kts 161°
2026-04-24 19:06 18.30034 72.90829 19001 ft 366 kts 161°
2026-04-24 19:06 18.27611 72.91667 19335 ft 368 kts 161°
2026-04-24 19:07 18.25200 72.92501 19654 ft 370 kts 161°
2026-04-24 19:07 18.22708 72.93362 19989 ft 372 kts 161°
2026-04-24 19:07 18.20244 72.94213 20327 ft 374 kts 161°
2026-04-24 19:07 18.17760 72.95072 20659 ft 376 kts 161°
2026-04-24 19:08 18.15325 72.95913 20991 ft 378 kts 161°
2026-04-24 19:08 18.14515 72.96192 21095 ft 378 kts 161°
2026-04-24 19:08 18.11901 72.97105 21449 ft 380 kts 160°
2026-04-24 19:08 18.09427 72.98207 21775 ft 382 kts 152°
2026-04-24 19:09 18.07181 72.99698 22088 ft 383 kts 142°
2026-04-24 19:09 18.05183 73.01484 22415 ft 385 kts 137°
2026-04-24 19:09 18.03169 73.03424 22745 ft 387 kts 137°
2026-04-24 19:09 18.01199 73.05322 23016 ft 390 kts 137°
2026-04-24 19:10 17.99210 73.07232 23317 ft 392 kts 137°
2026-04-24 19:10 17.97174 73.09182 23585 ft 394 kts 138°
2026-04-24 19:10 17.95143 73.11124 23828 ft 396 kts 138°
2026-04-24 19:10 17.93097 73.13078 24095 ft 398 kts 138°
2026-04-24 19:11 17.91045 73.15036 24328 ft 400 kts 139°
2026-04-24 19:11 17.88984 73.17002 24574 ft 402 kts 139°
2026-04-24 19:11 17.86909 73.18981 24826 ft 403 kts 139°
2026-04-24 19:11 17.84827 73.20965 25075 ft 405 kts 139°
2026-04-24 19:12 17.82737 73.22956 25322 ft 407 kts 139°
2026-04-24 19:12 17.80634 73.24959 25570 ft 409 kts 140°
2026-04-24 19:12 17.78523 73.26969 25826 ft 410 kts 140°
2026-04-24 19:12 17.76407 73.28983 26077 ft 412 kts 140°
2026-04-24 19:13 17.74997 73.30324 26234 ft 413 kts 140°
2026-04-24 19:13 17.72187 73.32996 26588 ft 415 kts 140°
2026-04-24 19:13 17.70041 73.35037 26845 ft 417 kts 141°
2026-04-24 19:13 17.67886 73.37084 27093 ft 419 kts 141°
2026-04-24 19:14 17.65721 73.39142 27341 ft 421 kts 141°
2026-04-24 19:14 17.63548 73.41206 27586 ft 423 kts 141°
2026-04-24 19:14 17.61360 73.43283 27861 ft 425 kts 141°
2026-04-24 19:14 17.59195 73.45338 28126 ft 427 kts 142°
2026-04-24 19:15 17.56989 73.47432 28377 ft 429 kts 142°
2026-04-24 19:15 17.54774 73.49532 28628 ft 431 kts 142°
2026-04-24 19:15 17.52543 73.51648 28886 ft 433 kts 142°
2026-04-24 19:15 17.50307 73.53768 29152 ft 434 kts 142°
2026-04-24 19:16 17.45850 73.57993 29964 ft 432 kts 143°
2026-04-24 19:16 17.43620 73.60105 30252 ft 432 kts 143°
2026-04-24 19:16 17.41401 73.62207 30643 ft 429 kts 144°
2026-04-24 19:17 17.39188 73.64303 31058 ft 427 kts 144°
2026-04-24 19:17 17.36994 73.66382 31514 ft 424 kts 145°
2026-04-24 19:17 17.34833 73.68427 31977 ft 421 kts 146°
2026-04-24 19:17 17.32646 73.70493 32385 ft 418 kts 146°
2026-04-24 19:18 17.30519 73.72502 32717 ft 418 kts 146°
2026-04-24 19:18 17.28367 73.74535 33121 ft 416 kts 147°
2026-04-24 19:18 17.26224 73.76559 33512 ft 414 kts 147°
2026-04-24 19:18 17.24094 73.78570 33920 ft 411 kts 147°
2026-04-24 19:19 17.21973 73.80571 34232 ft 411 kts 147°
2026-04-24 19:19 17.20601 73.81864 34397 ft 412 kts 147°
2026-04-24 19:19 17.18473 73.83868 34663 ft 413 kts 147°
2026-04-24 19:20 17.16316 73.85900 34881 ft 415 kts 147°
2026-04-24 19:20 17.14159 73.87930 35010 ft 420 kts 146°
2026-04-24 19:20 17.11977 73.89983 35116 ft 425 kts 146°
2026-04-24 19:20 17.09794 73.92038 35221 ft 430 kts 146°
2026-04-24 19:21 17.07561 73.94141 35330 ft 435 kts 146°
2026-04-24 19:21 17.05300 73.96269 35430 ft 440 kts 146°
2026-04-24 19:21 17.00702 74.00596 35657 ft 450 kts 145°
2026-04-24 19:22 16.96000 74.05017 35854 ft 459 kts 145°
2026-04-24 19:22 16.93614 74.07259 35975 ft 464 kts 145°
2026-04-24 19:22 16.91220 74.09509 36068 ft 468 kts 145°
2026-04-24 19:23 16.86643 74.14461 36282 ft 484 kts 136°
2026-04-24 19:23 16.84514 74.17201 36494 ft 486 kts 135°
2026-04-24 19:23 16.82421 74.19983 36752 ft 487 kts 134°
2026-04-24 19:24 16.80347 74.22770 37019 ft 487 kts 134°
2026-04-24 19:24 16.78269 74.25560 37286 ft 487 kts 134°
2026-04-24 19:24 16.76189 74.28339 37563 ft 486 kts 134°
2026-04-24 19:24 16.74102 74.31112 37839 ft 485 kts 134°
2026-04-24 19:25 16.72009 74.33882 38113 ft 485 kts 134°
2026-04-24 19:25 16.69919 74.36639 38374 ft 485 kts 134°
2026-04-24 19:25 16.67826 74.39396 38628 ft 485 kts 134°
2026-04-24 19:25 16.65734 74.42150 38841 ft 484 kts 134°
2026-04-24 19:26 16.63641 74.44905 39046 ft 484 kts 134°
2026-04-24 19:26 16.61552 74.47653 39258 ft 483 kts 134°
2026-04-24 19:26 16.59467 74.50396 39459 ft 483 kts 133°
2026-04-24 19:26 16.57409 74.53103 39653 ft 483 kts 133°
2026-04-24 19:27 16.55322 74.55847 39841 ft 482 kts 133°
2026-04-24 19:27 16.53240 74.58583 40035 ft 482 kts 133°
2026-04-24 19:27 16.51162 74.61314 40213 ft 482 kts 133°
2026-04-24 19:27 16.49079 74.64051 40400 ft 481 kts 133°
2026-04-24 19:28 16.47039 74.66736 40564 ft 481 kts 133°
2026-04-24 19:28 16.44954 74.69475 40729 ft 481 kts 133°
2026-04-24 19:28 16.42872 74.72202 40855 ft 481 kts 133°
2026-04-24 19:28 16.40784 74.74936 40894 ft 481 kts 133°
2026-04-24 19:29 16.34526 74.83127 40882 ft 486 kts 133°
2026-04-24 19:30 16.30281 74.88677 40882 ft 493 kts 133°
2026-04-24 19:30 16.25981 74.94299 40877 ft 499 kts 133°
2026-04-24 19:31 16.21664 74.99945 40870 ft 498 kts 133°
2026-04-24 19:31 16.17353 75.05579 40873 ft 497 kts 133°
2026-04-24 19:32 16.13078 75.11156 40866 ft 497 kts 133°
2026-04-24 19:32 16.08727 75.16829 40866 ft 497 kts 133°
2026-04-24 19:33 16.04451 75.22398 40867 ft 497 kts 133°
2026-04-24 19:33 16.00138 75.28012 40866 ft 497 kts 133°
2026-04-24 19:34 15.95850 75.33589 40869 ft 497 kts 133°
2026-04-24 19:34 15.91504 75.39237 40865 ft 497 kts 133°
2026-04-24 19:35 15.87212 75.44811 40870 ft 497 kts 133°
2026-04-24 19:35 15.82896 75.50412 40871 ft 497 kts 133°
2026-04-24 19:36 15.78570 75.56021 40872 ft 497 kts 133°
2026-04-24 19:36 15.74243 75.61628 40875 ft 497 kts 133°
2026-04-24 19:37 15.69913 75.67234 40880 ft 497 kts 133°
2026-04-24 19:37 15.65589 75.72828 40880 ft 497 kts 133°
2026-04-24 19:38 15.61307 75.78365 40880 ft 497 kts 133°
2026-04-24 19:38 15.57005 75.83921 40881 ft 497 kts 133°
2026-04-24 19:39 15.52675 75.89511 40883 ft 497 kts 133°
2026-04-24 19:39 15.48336 75.95108 40883 ft 497 kts 133°
2026-04-24 19:40 15.44000 76.00696 40885 ft 497 kts 133°
2026-04-24 19:40 15.39659 76.06287 40880 ft 498 kts 133°
2026-04-24 19:41 15.35315 76.11879 40882 ft 498 kts 133°
2026-04-24 19:41 15.30970 76.17467 40884 ft 498 kts 133°
2026-04-24 19:42 15.26623 76.23053 40890 ft 498 kts 133°
2026-04-24 19:42 15.22270 76.28643 40891 ft 498 kts 133°
2026-04-24 19:43 15.17972 76.34159 40895 ft 498 kts 133°
2026-04-24 19:43 15.13612 76.39750 40898 ft 501 kts 133°
2026-04-24 19:44 15.09944 76.44444 40895 ft 506 kts 133°
2026-04-24 19:44 15.05509 76.50120 40898 ft 509 kts 133°
2026-04-24 19:45 15.01056 76.55818 40903 ft 509 kts 133°
2026-04-24 19:45 14.96604 76.61510 40902 ft 508 kts 133°
2026-04-24 19:46 14.92159 76.67189 40906 ft 508 kts 133°
2026-04-24 19:46 14.87712 76.72866 40907 ft 508 kts 133°
2026-04-24 19:47 14.83266 76.78537 40904 ft 507 kts 133°
2026-04-24 19:47 14.78821 76.84202 40906 ft 507 kts 133°
2026-04-24 19:48 14.74416 76.89813 40901 ft 507 kts 133°
2026-04-24 19:48 14.67754 76.98292 40911 ft 506 kts 133°
2026-04-24 19:49 14.59190 77.09854 40906 ft 513 kts 121°
2026-04-24 19:50 14.53971 77.23668 40908 ft 517 kts 114°
2026-04-24 19:51 14.50206 77.34045 40904 ft 517 kts 114°
2026-04-24 19:52 14.46425 77.44424 40898 ft 517 kts 115°
2026-04-24 19:52 14.43875 77.51412 40893 ft 516 kts 115°
2026-04-24 19:53 14.41361 77.58295 40894 ft 516 kts 115°
2026-04-24 19:54 14.37565 77.68673 40891 ft 516 kts 115°
2026-04-24 19:54 14.36076 77.72740 40893 ft 516 kts 115°
2026-04-24 19:55 14.33970 77.78489 40888 ft 515 kts 115°
2026-04-24 19:55 14.31025 77.86516 40885 ft 515 kts 115°
2026-04-24 19:56 14.28482 77.93442 40884 ft 515 kts 115°
2026-04-24 19:56 14.25944 78.00350 40887 ft 515 kts 115°
2026-04-24 19:57 14.23402 78.07257 40887 ft 514 kts 115°
2026-04-24 19:57 14.20865 78.14146 40882 ft 514 kts 115°
2026-04-24 19:58 14.18363 78.20930 40883 ft 514 kts 115°
2026-04-24 19:58 14.15824 78.27810 40884 ft 514 kts 115°
2026-04-24 19:59 14.13284 78.34689 40886 ft 513 kts 115°
2026-04-24 19:59 14.10740 78.41569 40888 ft 513 kts 115°
2026-04-24 20:00 14.08195 78.48444 40888 ft 513 kts 115°
2026-04-24 20:00 14.05657 78.55296 40882 ft 513 kts 115°
2026-04-24 20:01 14.02889 78.62053 40891 ft 507 kts 124°
2026-04-24 20:01 13.99652 78.67665 40523 ft 499 kts 126°
2026-04-24 20:01 13.97849 78.70729 39756 ft 501 kts 126°
2026-04-24 20:02 13.96656 78.72759 39252 ft 502 kts 126°
2026-04-24 20:02 13.94243 78.76873 38271 ft 502 kts 127°
2026-04-24 20:02 13.92432 78.79962 37305 ft 505 kts 127°
2026-04-24 20:02 13.90631 78.83033 36232 ft 511 kts 126°
2026-04-24 20:03 13.88807 78.86145 35180 ft 518 kts 126°
2026-04-24 20:03 13.86942 78.89329 34136 ft 524 kts 126°
2026-04-24 20:03 13.85047 78.92562 32979 ft 528 kts 126°
2026-04-24 20:03 13.83119 78.95851 31854 ft 531 kts 126°
2026-04-24 20:04 13.81235 78.99065 30771 ft 533 kts 125°
2026-04-24 20:04 13.79313 79.02342 29603 ft 535 kts 124°
2026-04-24 20:04 13.77403 79.05602 28822 ft 529 kts 124°
2026-04-24 20:04 13.75521 79.08814 28194 ft 520 kts 124°
2026-04-24 20:05 13.73663 79.11984 27539 ft 514 kts 124°
2026-04-24 20:05 13.71826 79.15113 26901 ft 507 kts 124°
2026-04-24 20:05 13.70013 79.18200 26280 ft 501 kts 123°
2026-04-24 20:05 13.68228 79.21239 25665 ft 495 kts 123°
2026-04-24 20:06 13.66458 79.24250 25072 ft 489 kts 123°
2026-04-24 20:06 13.64708 79.27225 24462 ft 483 kts 123°
2026-04-24 20:06 13.62979 79.30163 23878 ft 477 kts 123°
2026-04-24 20:06 13.61269 79.33070 23258 ft 472 kts 122°
2026-04-24 20:07 13.60145 79.34980 22776 ft 468 kts 122°
2026-04-24 20:07 13.57909 79.38778 21832 ft 461 kts 122°
2026-04-24 20:07 13.56255 79.41586 21143 ft 456 kts 122°
2026-04-24 20:07 13.54636 79.44333 20488 ft 451 kts 122°
2026-04-24 20:08 13.53046 79.47030 20055 ft 446 kts 122°
2026-04-24 20:08 13.51441 79.49753 19882 ft 446 kts 122°
2026-04-24 20:08 13.49831 79.52485 19851 ft 446 kts 122°
2026-04-24 20:08 13.48225 79.55207 19850 ft 445 kts 122°
2026-04-24 20:09 13.46619 79.57929 19848 ft 445 kts 122°
2026-04-24 20:09 13.45015 79.60647 19860 ft 445 kts 122°
2026-04-24 20:09 13.43411 79.63362 19860 ft 445 kts 121°
2026-04-24 20:09 13.41578 79.65927 19843 ft 445 kts 131°
2026-04-24 20:10 13.39514 79.68245 19478 ft 434 kts 133°
2026-04-24 20:10 13.37441 79.70491 18779 ft 433 kts 133°
2026-04-24 20:10 13.35399 79.72706 18477 ft 420 kts 133°
2026-04-24 20:10 13.33429 79.74851 18237 ft 406 kts 133°
2026-04-24 20:11 13.31547 79.76907 18009 ft 394 kts 133°
2026-04-24 20:11 13.29677 79.78953 17751 ft 381 kts 132°
2026-04-24 20:11 13.27912 79.80886 17491 ft 371 kts 132°
2026-04-24 20:11 13.26169 79.82796 17117 ft 364 kts 132°
2026-04-24 20:12 13.24435 79.84697 16441 ft 366 kts 132°
2026-04-24 20:12 13.22683 79.86617 15678 ft 372 kts 131°
2026-04-24 20:12 13.20903 79.88568 14921 ft 376 kts 131°
2026-04-24 20:12 13.19105 79.90537 14175 ft 380 kts 131°
2026-04-24 20:13 13.17317 79.92496 13440 ft 382 kts 131°
2026-04-24 20:13 13.15492 79.94494 12639 ft 384 kts 131°
2026-04-24 20:13 13.14038 79.96088 11990 ft 384 kts 131°
2026-04-24 20:13 13.12214 79.98085 11213 ft 384 kts 130°
2026-04-24 20:14 13.10390 80.00081 10480 ft 376 kts 130°
2026-04-24 20:14 13.08673 80.01953 10035 ft 344 kts 130°
2026-04-24 20:14 13.07153 80.03719 9816 ft 323 kts 123°
2026-04-24 20:14 13.06265 80.05782 9518 ft 312 kts 99°
2026-04-24 20:15 13.06301 80.07911 8625 ft 301 kts 76°
2026-04-24 20:15 13.07016 80.09962 7690 ft 303 kts 68°
2026-04-24 20:15 13.07828 80.11978 7113 ft 307 kts 68°
2026-04-24 20:15 13.08612 80.13992 6856 ft 309 kts 69°
2026-04-24 20:16 13.09387 80.16040 6794 ft 308 kts 69°
2026-04-24 20:16 13.10152 80.18089 6801 ft 307 kts 70°
2026-04-24 20:16 13.10912 80.20142 6806 ft 307 kts 70°
2026-04-24 20:16 13.11666 80.22188 6802 ft 307 kts 70°
2026-04-24 20:17 13.12421 80.24243 6810 ft 307 kts 70°
2026-04-24 20:17 13.13941 80.28348 6804 ft 307 kts 69°
2026-04-24 20:17 13.14735 80.30373 6805 ft 303 kts 69°
2026-04-24 20:18 13.15241 80.31656 6813 ft 282 kts 69°
2026-04-24 20:18 13.16090 80.34005 6579 ft 248 kts 77°
2026-04-24 20:18 13.16046 80.35719 6085 ft 240 kts 108°
2026-04-24 20:18 13.15099 80.37113 5300 ft 246 kts 141°
2026-04-24 20:19 13.13479 80.37719 4508 ft 255 kts 176°
2026-04-24 20:19 13.11737 80.37614 4015 ft 244 kts 179°
2026-04-24 20:19 13.10118 80.37674 3822 ft 230 kts 175°
2026-04-24 20:19 13.08532 80.37709 3602 ft 225 kts 184°
2026-04-24 20:20 13.07068 80.37176 2976 ft 230 kts 213°
2026-04-24 20:20 13.06091 80.35940 2390 ft 233 kts 243°
2026-04-24 20:20 13.05516 80.34423 2171 ft 225 kts 247°
2026-04-24 20:20 13.04980 80.32906 2144 ft 228 kts 246°
2026-04-24 20:21 13.04425 80.31377 1989 ft 228 kts 246°
2026-04-24 20:21 13.03861 80.29847 1648 ft 229 kts 246°
2026-04-24 20:21 13.03314 80.28375 1554 ft 220 kts 246°
2026-04-24 20:21 13.02777 80.26924 1532 ft 205 kts 245°
2026-04-24 20:22 13.02303 80.25652 1578 ft 176 kts 245°
2026-04-24 20:22 13.02028 80.24909 1563 ft 160 kts 245°
2026-04-24 20:22 13.01546 80.23613 1549 ft 139 kts 244°
2026-04-24 20:22 13.01215 80.22729 1482 ft 141 kts 245°
2026-04-24 20:23 13.00859 80.21792 1345 ft 141 kts 244°
2026-04-24 20:23 13.00489 80.20845 1009 ft 145 kts 243°
2026-04-24 20:23 13.00121 80.19869 632 ft 148 kts 247°
2026-04-24 20:23 12.99751 80.18860 236 ft 152 kts 244°
2026-04-24 20:24 12.99507 80.18242 91 ft 147 kts 248°
2026-04-24 20:24 12.99170 80.17314 55 ft 123 kts 248°
2026-04-24 20:24 12.98973 80.16784 52 ft 37 kts 248°
2026-04-24 20:24 12.98953 80.16734 55 ft 2 kts 248°
2026-04-24 20:25 12.98927 80.16660 60 ft 19 kts 250°
2026-04-24 20:25 12.98871 80.16509 56 ft 24 kts 244°
2026-04-24 20:25 12.98769 80.16378 55 ft 24 kts 219°
2026-04-24 20:25 12.98659 80.16289 54 ft 15 kts 214°
2026-04-24 20:26 12.98569 80.16220 53 ft 16 kts 229°
2026-04-24 20:26 12.98519 80.16141 52 ft 7 kts 209°
2026-04-24 20:26 12.98469 80.16144 53 ft 8 kts 160°
2026-04-24 20:26 12.98404 80.16168 54 ft 12 kts 160°
2026-04-24 20:27 12.98369 80.16158 54 ft 2 kts 245°
2026-04-24 20:27 12.98359 80.16127 54 ft 7 kts 250°
2026-04-24 20:27 12.98330 80.16098 57 ft 2 kts 187°
2026-04-24 20:27 12.98318 80.16104 57 ft 3 kts 159°
2026-04-24 20:28 12.98292 80.16113 54 ft 5 kts 160°
2026-04-24 20:28 12.98291 80.16114 54 ft 0 kts 160°